Location: *
(46.4833°N, 7.6667°E)
Time: 05:00:06
(UTC+00:00)

Timation 2 Rocket - Pass Details

Date: 27 February 2020
Orbit: 904 x 1078 km, 70.0° (Epoch: 29 March)

Event Time Altitude Azimuth Distance (km) Brightness Sun altitude
Rises 18:36:48 0° 331° (NNW) 3,868 7.6 -15.4°
Reaches altitude 10° 18:39:26 10° 331° (NNW) 2,918 6.9 -15.9°
Maximum altitude 18:46:21 84° 245° (WSW) 1,088 4.2 -17.1°
Drops below altitude 10° 18:53:12 10° 157° (SSE) 2,887 6.2 -18.2°
Enters shadow 18:55:12 - 157° (SSE) 3,613 6.7 -18.6°
